Terminal Aerodrome Forecast
Issued by NWS Miami, FL

Current Version | Previous Version | Text Only | Print | Product List | Glossary On
Versions: 1 2 3 4 5 6 7 8 9 10 11 12 13 14 15 16 17 18 19 20 21 22 23 24 25 26 27 28 29 30 31 32 33 34 35 36 37 38 39 40 41 42 43 44 45 46 47
000
FTUS42 KMFL 180232 AAA
TAFAPF
TAF AMD
KAPF 180232Z 1803/1824 VRB04KT P6SM SHRA SCT020 BKN035
      TEMPO 1803/1804 3SM +RA
     FM180400 VRB04KT P6SM SCT030 BKN060
     FM181500 26009KT P6SM VCTS SCT035CB SCT150=

USA.gov is the U.S. government's official web portal to all federal, state and local government web resources and services.